Regional Weather Roundup
Issued by NWS

Home | Current Version | Previous Version | Graphics & Text | Print | Product List | Glossary On
Versions: 1 2 3 4 5 6 7 8 9 10 11 12 13 14 15 16 17 18 19 20 21 22 23 24 25 26 27
000
ASUS45 KCYS 270610
RWRWY

WYOMING REGIONAL WEATHER ROUNDUP
NATIONAL WEATHER SERVICE CHEYENNE WY
1200 AM MDT FRI MAY 27 2016

NOTE:  "FAIR" INDICATES FEW OR NO CLOUDS BELOW 12,000 FEET
WITH NO SIGNIFICANT WEATHER AND/OR OBSTRUCTIONS TO VISIBILITY.

WYZ001-270700-
YELLOWSTONE NATIONAL PARK

CITY           SKY/WX    TMP DP  RH WIND       PRES   REMARKS
LK YELLOWSTONE   N/A     31  30  96 CALM      30.09F
6HR MIN TEMP:  31; 6HR MAX TEMP:  39; 6HR PCP:  0.23;

W YELLOWSTONE  NOT AVBL

$$
WYZ002>013-054>058-071-098>099-270700-
NORTHERN WYOMING

CITY           SKY/WX    TMP DP  RH WIND       PRES   REMARKS
JACKSON        MOCLDY    45  39  81 N9        30.02S
CODY           FAIR      46  39  76 CALM      29.96S
GREYBULL       FAIR      51  46  83 W5        29.92F
6HR MIN TEMP:  50; 6HR MAX TEMP:  63;

WORLAND        FAIR      48  43  82 SW5       29.93F
6HR MIN TEMP:  47; 6HR MAX TEMP:  63;

SHERIDAN       MOCLDY    51  44  77 W9        29.92F
6HR MIN TEMP:  49; 6HR MAX TEMP:  62;

BUFFALO        FAIR      49  42  77 W6        29.95S
6HR MIN TEMP:  49; 6HR MAX TEMP:  60;

GILLETTE       FAIR      41  37  86 CALM      29.93R
6HR MIN TEMP:  40; 6HR MAX TEMP:  62;

HULETT         FAIR      46  41  81 S8        29.93F
NEWCASTLE      FAIR      50  34  53 NW9       29.93R

$$
WYZ014>020-022>026-101>103-270700-
CENTRAL WYOMING

CITY           SKY/WX    TMP DP  RH WIND       PRES   REMARKS
BIG PINEY      FAIR      42  34  73 N10       30.02S
6HR MIN TEMP:  40; 6HR MAX TEMP:  62;

PINEDALE       MOCLDY    36  32  87 CALM      30.02F
DUBOIS         FAIR      37  30  75 W6        30.02F WCI  33
LANDER         LGT RAIN  50  39  66 CALM      29.98F
6HR MIN TEMP:  47; 6HR MAX TEMP:  66; 6HR PCP: TRACE;

RIVERTON       LGT RAIN  50  39  66 CALM      29.99F
6HR MIN TEMP:  50; 6HR MAX TEMP:  63; 6HR PCP: TRACE;

CASPER         FAIR      43  37  79 CALM      29.95F
6HR MIN TEMP:  39; 6HR MAX TEMP:  60;

DOUGLAS          N/A    N/A N/A N/A MISG      29.95S

$$
WYZ021-027>030-104>119-270700-
SOUTHERN WYOMING

CITY           SKY/WX    TMP DP  RH WIND       PRES   REMARKS
EVANSTON       FAIR      42  34  73 S7        30.05S
6HR MIN TEMP:  42; 6HR MAX TEMP:  54; 6HR PCP: TRACE;

KEMMERER         N/A     41  34  75 NW8       30.04S
FORT BRIDGER   CLOUDY    45  37  76 W13       30.06F
ROCK SPRINGS   LGT RAIN  45  40  82 NE9       30.02S
6HR MIN TEMP:  45; 6HR MAX TEMP:  63; 6HR PCP:  0.04;

DIXON          FAIR      46  38  74 W5        29.99S
RAWLINS        FAIR      41  35  79 N10       29.98S
6HR MIN TEMP:  41; 6HR MAX TEMP:  58;

SARATOGA       FAIR      39  32  75 W6        29.98S WCI  35
LARAMIE        FAIR      38  35  89 NW6       29.96F WCI  33
6HR MIN TEMP:  38; 6HR MAX TEMP:  48;

CHEYENNE       CLOUDY    48  37  65 N13       29.90F
6HR MIN TEMP:  47; 6HR MAX TEMP:  49;

TORRINGTON     FAIR      50  43  77 N12       29.84F
6HR MIN TEMP:  49; 6HR MAX TEMP:  63;

PINE BLUFFS    CLOUDY    46  45  93 NW8       29.87F

$$




USA.gov is the U.S. government's official web portal to all federal, state and local government web resources and services.